• In Belarus
  • List of Countries
  • For 7 days
  • Water Temperature
  • Satellite Maps
  • Weather Map
  • Weather Widgets
  • user-avatar
    Login

    Hourly Weather Vorohta

    Today, 23 September, Sunday

    Time Temperature Precipitation Wind Pressure Humidity
    00:00 +10°C° 0 mm 1 mps 691 mmHg 100%
    01:00 +10°C° 0 mm 1 mps 690 mmHg 100%
    02:00 +10°C° 0 mm 1 mps 690 mmHg 98%
    03:00 +8°C° 0 mm 2 mps 690 mmHg 95%
    04:00 +8°C° 0 mm 2 mps 690 mmHg 92%
    05:00 +7°C° 0 mm 2 mps 690 mmHg 92%
    06:00 +7°C° 0 mm 2 mps 690 mmHg 97%
    07:00 +6°C° 0 mm 2 mps 690 mmHg 100%
    08:00 +7°C° 0 mm 4 mps 691 mmHg 100%
    09:00 +8°C° 0 mm 5 mps 691 mmHg 99%
    10:00 +9°C° 0 mm 5 mps 692 mmHg 95%
    11:00 +9°C° 0 mm 5 mps 692 mmHg 92%
    12:00 +10°C° 0 mm 5 mps 693 mmHg 87%
    13:00 +10°C° 0 mm 5 mps 693 mmHg 87%
    14:00 +11°C° 0 mm 4 mps 693 mmHg 88%
    15:00 +12°C° 0 mm 5 mps 692 mmHg 86%
    16:00 +10°C° 0 mm 5 mps 692 mmHg 88%
    17:00 +10°C° 0 mm 5 mps 692 mmHg 87%
    18:00 +10°C° 0 mm 4 mps 692 mmHg 90%
    19:00 +9°C° 0 mm 3 mps 691 mmHg 93%
    20:00 +8°C° 0 mm 3 mps 691 mmHg 98%
    21:00 +7°C° 0 mm 4 mps 690 mmHg 100%
    22:00 +7°C° 0 mm 4 mps 690 mmHg 100%
    23:00 +7°C° 0 mm 4 mps 689 mmHg 100%

    Tomorrow, 24 September, Monday

    Time Temperature Precipitation Wind Pressure Humidity
    00:00 +8°C° 0 mm 4 mps 688 mmHg 100%
    01:00 +8°C° 0 mm 5 mps 687 mmHg 100%
    02:00 +8°C° 0 mm 4 mps 687 mmHg 100%
    03:00 +9°C° 0 mm 5 mps 685 mmHg 94%
    04:00 +9°C° 0 mm 7 mps 684 mmHg 95%
    05:00 +9°C° 0 mm 7 mps 683 mmHg 94%
    06:00 +9°C° 0 mm 8 mps 682 mmHg 89%
    07:00 +9°C° 0 mm 13 mps 680 mmHg 89%
    08:00 +10°C° 0 mm 15 mps 678 mmHg 92%
    09:00 +12°C° 0 mm 14 mps 679 mmHg 100%
    10:00 +13°C° 2.3 mm 11 mps 681 mmHg 97%
    11:00 +13°C° 0.3 mm 11 mps 680 mmHg 100%
    12:00 +16°C° 1.1 mm 11 mps 681 mmHg 100%
    13:00 +14°C° 1 mm 11 mps 680 mmHg 100%
    14:00 +13°C° 0.3 mm 12 mps 680 mmHg 100%
    15:00 +11°C° 0.4 mm 9 mps 682 mmHg 87%
    16:00 +10°C° 0 mm 8 mps 683 mmHg 92%
    17:00 +8°C° 0 mm 7 mps 684 mmHg 93%
    18:00 +6°C° 0 mm 7 mps 684 mmHg 94%
    19:00 +5°C° 0 mm 8 mps 685 mmHg 96%
    20:00 +5°C° 0 mm 7 mps 685 mmHg 94%
    21:00 +5°C° 0 mm 7 mps 686 mmHg 95%
    22:00 +4°C° 0 mm 7 mps 685 mmHg 96%
    23:00 +3°C° 0 mm 7 mps 686 mmHg 98%

    Day after tomorrow, 25 September, Tuesday

    Time Temperature Precipitation Wind Pressure Humidity
    00:00 +3°C° 0 mm 6 mps 686 mmHg 100%
    01:00 +3°C° 0 mm 5 mps 687 mmHg 100%
    02:00 +3°C° 0 mm 5 mps 687 mmHg 100%

    26 September, Wednesday

    Time Temperature Precipitation Wind Pressure Humidity

    27 September, Thursday

    Time Temperature Precipitation Wind Pressure Humidity

    28 September, Friday

    Time Temperature Precipitation Wind Pressure Humidity
    Show more